Dewpoint
61 61 61 61 60 61 61 61 61 61 61 62 62 63 63 62 58 29 19 34 47 67 63 45 45 40 39 40 42 45 40 35 31 29 26 14 13 11 12 10 11 11 10 13 19
60 60 61 60 60 61 61 61 62 61 61 62 62 62 62 61 34 23 49 65 67 68 42 42 41 38 37 36 37 40 39 33 28 26 20 14 13 11 11 10 9 7 9 18 23
60 60 60 60 60 61 61 61 61 61 62 62 61 61 61 55 29 22 60 65 68 60 42 39 36 35 35 35 32 29 30 26 21 19 17 15 13 12 12 12 11 8 8 16 22
60 60 60 60 60 61 60 60 61 61 62 62 61 60 59 33 29 22 62 67 65 45 44 38 36 34 33 30 27 26 22 24 20 18 16 16 14 13 13 13 12 12 8 14 21
59 59 59 59 59 59 60 60 60 61 61 61 61 60 39 23 23 21 55 57 40 39 36 37 34 33 30 28 26 22 19 17 18 17 15 15 13 12 10 11 10 8 11 19 21
59 59 59 59 59 58 59 60 60 60 60 60 61 58 28 24 23 24 29 31 33 33 33 36 32 31 26 22 24 18 16 14 14 13 13 13 9 10 10 8 5 8 14 20 22
59 59 59 59 59 59 59 59 60 60 60 60 60 40 24 24 24 24 28 29 31 34 32 31 31 28 25 20 19 18 17 15 13 12 12 13 11 11 9 7 2 5 16 22 23
59 59 58 59 59 59 59 59 59 60 60 60 57 27 24 24 24 23 26 24 31 29 30 29 28 27 24 23 20 18 19 19 16 14 13 16 16 11 7 4 2 2 14 21 22
59 59 58 59 58 59 59 59 59 59 59 58 33 26 22 37 21 22 26 22 26 30 31 26 29 26 25 23 21 22 17 18 19 15 13 16 16 12 7 4 2 -1 5 17 21
60 59 59 58 58 58 58 58 57 53 43 32 19 22 22 20 23 22 24 26 25 29 28 25 22 21 22 15 8 7 15 16 19 17 13 14 15 14 7 6 3 -2 0 14 20
60 59 58 58 58 57 52 34 30 27 30 23 23 20 19 20 22 19 22 23 26 24 25 24 22 23 16 17 14 14 13 11 16 18 15 15 15 17 11 8 4 -1 -1 8 16
60 60 59 58 56 56 46 33 33 32 27 27 23 21 22 20 19 19 23 22 25 23 26 22 22 19 11 15 14 15 13 11 14 19 15 16 16 18 15 9 9 2 -0 3 14
60 59 59 57 56 44 38 39 42 35 25 24 23 21 22 20 20 19 22 22 22 20 22 21 22 16 16 14 13 13 11 9 6 12 16 14 12 12 9 8 9 4 3 3 10
59 59 58 57 42 38 40 42 43 33 16 17 23 23 23 24 23 22 22 23 19 17 17 19 15 15 17 14 11 11 13 14 14 13 11 12 9 12 9 8 6 7 3 4 13
59 59 57 54 40 39 40 41 42 23 10 20 23 24 24 22 21 22 24 23 19 17 22 19 16 15 17 15 12 12 18 18 16 14 15 12 10 10 9 10 9 6 4 5 10
59 58 57 46 39 37 39 40 28 15 10 23 24 21 20 22 22 24 21 21 22 18 17 17 16 13 12 11 11 16 17 20 20 17 7 12 11 7 10 10 9 9 4 5 6
58 57 54 48 33 38 39 29 17 12 19 20 21 22 20 20 20 21 20 20 15 14 16 19 17 15 11 13 16 15 12 12 7 9 5 13 10 12 12 12 10 10 6 5 6
57 55 47 47 45 42 34 25 15 17 18 24 23 21 19 19 20 21 20 16 20 18 17 15 10 15 10 10 12 10 12 12 5 2 5 9 7 11 9 7 5 7 8 7 10
53 44 38 39 41 38 29 21 18 19 24 22 22 18 20 22 20 20 18 17 17 19 10 15 17 11 7 7 12 13 9 11 9 12 10 9 9 10 6 3 3 6 7 9 13
49 39 38 39 40 34 27 27 22 25 25 24 19 20 18 20 20 18 17 18 21 19 21 17 11 14 13 12 10 12 11 9 12 14 6 3 5 8 9 8 5 4 6 9 14
39 36 36 39 38 33 28 26 26 26 27 22 21 22 20 21 20 18 18 20 21 19 19 17 13 13 17 12 9 7 6 10 11 11 12 4 8 9 10 12 7 4 7 10 12
38 38 38 38 32 32 29 29 34 29 28 26 25 24 21 22 21 20 19 19 23 19 15 17 12 9 13 13 13 11 7 11 22 13 11 17 13 12 9 9 11 8 7 9 12
37 35 40 36 30 29 31 31 32 29 27 26 25 26 25 23 21 22 22 28 26 18 16 19 14 8 8 14 16 12 10 14 17 18 14 22 15 9 6 7 9 10 7 7 10
37 35 36 35 34 29 29 28 28 30 29 26 24 25 24 23 24 22 23 27 26 25 31 23 15 11 12 9 17 13 12 16 14 18 19 13 11 12 12 9 9 10 9 7 9
38 35 35 32 32 30 29 29 28 27 28 27 25 25 24 22 23 23 24 22 22 32 23 19 15 14 14 13 16 15 13 15 16 12 17 13 13 13 14 12 9 10 8 6 7
39 36 37 34 34 32 34 29 29 29 27 26 26 25 25 23 23 21 23 21 20 24 19 21 16 17 15 15 19 18 19 15 14 12 11 11 10 15 15 11 8 7 7 5 6
45 41 38 35 33 31 31 30 30 30 29 26 26 25 25 25 24 25 23 22 22 21 18 19 18 16 11 16 16 13 16 18 16 14 13 12 15 12 12 14 14 10 8 7 7
Lifted_Index
8 8 8 8 8 9 8 8 8 8 8 7 7 7 7 8 9 9 9 8 6 4 5 5 5 6 7 7 7 6 5 5 5 6 5 5 5 6 7 7 8 10 12 15 17
8 8 8 8 9 9 9 9 8 8 8 8 7 7 7 8 9 9 9 7 4 4 5 6 6 6 7 8 8 7 6 6 6 6 6 6 6 7 7 8 9 10 13 15 17
8 8 8 9 9 9 9 9 9 8 8 8 8 8 8 9 9 9 8 5 3 5 6 6 6 6 7 8 8 8 7 7 7 7 7 7 7 8 8 9 10 12 13 15 17
8 8 9 9 9 9 10 10 10 9 8 8 8 9 9 9 9 10 9 6 5 6 7 7 6 7 7 8 9 8 8 8 8 8 8 8 8 9 9 10 12 13 14 16 17
9 9 9 9 10 10 10 10 10 10 9 9 9 9 10 9 10 11 10 8 8 8 8 7 7 7 8 8 9 9 9 9 9 9 9 9 9 9 11 12 13 14 15 16 16
9 9 9 10 10 10 10 10 10 10 10 9 9 10 10 10 11 11 11 10 10 10 9 8 8 8 8 9 9 9 9 9 9 9 9 9 9 9 11 12 13 14 15 15 16
10 10 10 10 10 10 11 10 10 10 10 10 10 10 10 10 11 12 12 11 11 10 9 9 9 9 9 9 9 9 8 7 8 8 9 8 8 9 11 12 13 13 14 15 15
10 10 10 10 10 10 10 10 10 10 10 11 11 11 11 11 12 12 12 12 11 11 10 10 10 10 10 9 8 7 6 5 6 8 8 7 7 9 11 12 12 13 13 14 14
11 11 11 11 11 10 10 10 10 10 11 11 11 11 10 11 11 12 12 12 12 11 11 11 10 10 9 8 6 5 4 4 5 7 7 7 6 9 11 12 12 12 13 13 14
11 11 11 11 11 10 10 10 10 10 11 11 11 10 10 11 11 11 12 12 11 11 10 10 9 8 7 6 5 4 3 3 4 6 6 6 6 8 11 11 12 12 12 12 13
11 11 12 12 11 11 10 10 10 10 10 10 10 10 10 11 11 11 11 11 11 10 9 8 7 6 7 7 5 4 4 3 4 6 5 5 5 7 9 11 11 11 12 12 12
10 11 12 12 12 11 10 9 10 9 9 9 9 10 10 10 10 10 11 10 9 8 8 7 6 7 7 7 6 5 4 3 4 5 5 4 5 6 8 9 10 11 11 12 12
10 10 11 12 12 11 10 10 10 9 9 8 9 9 10 10 10 10 11 10 8 7 7 6 7 8 7 7 5 5 4 4 4 4 4 4 4 5 7 9 10 11 11 12 12
10 10 11 12 12 11 10 10 10 9 7 7 8 9 10 9 9 10 11 10 8 7 7 6 7 7 6 6 5 5 5 4 4 3 3 3 3 4 6 7 9 10 11 12 12
10 10 10 12 12 11 10 10 10 8 6 6 8 9 10 9 9 10 10 10 8 8 7 7 7 7 6 6 6 6 6 5 4 3 3 3 3 3 5 6 8 10 12 12 13
9 9 10 11 12 11 11 10 9 6 5 6 7 8 8 9 9 9 9 9 8 7 7 7 8 8 7 7 7 7 5 4 3 2 2 3 3 3 5 6 8 10 12 13 14
9 9 10 11 12 11 11 10 8 6 6 6 7 7 7 8 8 8 8 8 7 6 5 5 6 8 8 7 7 6 4 2 1 1 2 2 3 3 5 7 8 10 12 13 14
9 9 10 11 12 11 10 9 7 6 6 7 7 6 6 7 7 7 7 6 6 6 5 4 4 7 8 7 6 5 4 2 1 1 1 2 3 4 6 8 9 10 11 13 14
9 9 10 11 12 11 10 8 7 7 7 7 6 6 6 6 6 6 6 6 7 7 5 4 4 6 8 8 7 6 5 3 2 1 1 2 3 4 6 7 8 9 11 12 13
9 9 10 11 12 11 10 9 8 8 8 7 6 6 6 5 6 6 6 6 7 7 7 6 5 6 7 8 7 6 5 4 3 1 1 1 2 3 5 6 7 8 10 11 12
9 9 10 11 12 11 10 9 9 9 9 8 7 6 6 5 5 5 6 6 7 7 8 7 5 5 6 7 7 6 5 4 3 2 1 1 2 4 5 6 7 8 10 11 12
9 9 11 11 10 10 9 9 9 9 9 8 7 6 6 5 5 5 5 6 7 7 7 7 6 4 5 6 7 6 6 5 4 2 1 1 2 5 6 6 7 8 9 11 12
9 9 10 10 10 9 9 9 9 9 9 9 8 7 6 5 5 5 5 6 6 7 7 7 6 4 4 6 7 6 6 6 5 3 2 1 3 5 6 7 7 8 9 11 12
9 9 9 10 9 9 9 9 9 9 9 9 8 8 7 6 5 5 5 6 6 6 7 7 6 5 4 5 6 6 6 6 5 3 2 1 2 5 6 7 7 8 9 10 11
10 10 10 10 10 9 9 8 8 8 9 9 9 8 7 7 6 5 5 5 5 6 6 6 6 6 6 6 6 6 6 6 5 4 2 2 3 4 6 7 7 8 8 9 9
10 10 10 10 10 10 9 8 8 8 8 9 8 8 8 7 7 6 6 5 5 5 6 6 6 6 6 6 6 6 6 5 5 4 3 3 3 5 6 7 7 8 8 8 9
10 10 10 10 10 10 9 8 8 8 8 9 8 8 8 8 7 6 6 6 5 5 5 5 6 5 5 6 6 5 5 5 5 5 4 3 4 5 6 7 7 8 8 8 8